EHI
0 0 0 0 0 0 0 0 0 0 0 0 0 0 0 0 0 0 0 0 0 0 0 0 0 0 0 0 1 2 3 3 3 3 3 1 0 0 0 0 0 0 0 0
0 0 0 0 0 0 0 0 0 0 0 0 0 0 0 0 0 0 0 0 0 0 0 0 0 0 0 0 0 1 2 3 3 3 3 2 1 0 0 0 0 0 0 0
0 0 0 0 0 0 0 0 0 0 0 0 0 0 0 0 0 0 0 0 0 0 0 0 0 0 0 0 0 0 1 2 3 3 3 3 1 0 0 0 0 0 0 0
0 0 0 0 0 0 0 0 0 0 0 0 0 0 0 0 0 0 0 0 0 0 0 0 0 0 0 0 0 0 0 1 2 3 3 3 2 1 0 0 0 0 0 0
0 0 0 0 0 0 0 0 0 0 0 0 0 0 0 0 0 0 0 0 0 0 0 0 0 0 0 0 0 0 0 0 1 2 3 3 2 1 0 0 0 0 0 0
0 0 0 0 0 0 0 0 0 0 0 0 0 0 0 0 0 0 0 0 0 0 0 0 0 0 0 0 0 0 0 0 0 1 2 3 3 1 0 0 0 0 0 0
0 0 0 0 0 0 0 0 0 0 0 0 0 0 0 0 0 0 0 0 0 0 0 0 0 0 0 0 0 0 0 0 0 0 1 2 3 2 1 0 0 0 0 0
0 0 0 0 0 0 0 0 0 0 0 0 0 0 0 0 0 0 0 0 0 0 0 0 0 0 0 0 0 0 0 0 0 0 0 1 2 2 1 0 0 0 0 0
0 0 0 0 0 0 0 0 0 0 0 0 0 0 0 0 0 0 0 0 0 0 0 0 0 0 0 0 0 0 0 0 0 0 0 0 1 2 2 1 0 0 0 0
0 0 0 0 0 0 0 0 0 0 0 0 0 0 0 0 0 0 0 0 0 0 0 0 0 0 0 0 0 0 0 0 0 0 0 0 1 2 2 1 0 0 0 0
0 0 0 0 0 0 0 0 0 0 0 0 0 0 0 0 0 0 0 0 0 0 0 0 0 0 0 0 0 0 0 0 0 0 0 0 0 2 2 1 0 0 0 0
0 0 0 0 0 0 0 0 0 0 0 0 0 0 0 0 0 0 0 0 0 0 0 0 0 0 0 0 0 0 0 0 0 0 0 0 0 1 2 1 0 0 0 0
0 0 0 0 0 0 0 0 0 0 0 0 0 0 0 0 0 0 0 0 0 0 0 0 0 0 0 0 0 0 0 0 0 0 0 0 0 1 1 1 0 0 0 0
0 0 0 0 0 0 0 0 0 0 0 0 0 0 0 0 0 0 0 0 0 0 0 0 0 0 0 0 0 0 0 0 0 0 0 0 0 0 0 0 0 0 0 0
0 0 0 0 0 0 0 0 0 0 0 0 0 0 0 0 0 0 0 0 0 0 0 0 0 0 0 0 0 0 0 0 0 0 0 0 0 0 0 0 0 0 0 0
0 0 0 0 0 0 0 0 0 0 0 0 0 0 0 0 0 0 0 0 0 0 0 0 0 0 0 0 0 0 0 0 0 0 0 0 0 0 0 0 0 0 0 0
0 0 0 0 0 0 0 0 0 0 0 0 0 0 0 0 0 0 0 0 0 0 0 0 0 0 0 0 0 0 0 0 0 0 0 0 0 0 0 0 0 0 0 0
0 0 0 0 0 0 0 0 0 0 0 0 0 0 0 0 0 0 0 0 0 0 0 0 0 0 0 0 0 0 0 0 0 0 0 0 0 0 0 0 0 0 0 0
0 0 0 0 0 0 0 0 0 0 0 0 0 0 0 0 0 0 0 0 0 0 0 0 0 0 0 0 0 0 0 0 0 0 0 0 0 0 0 0 0 0 0 0
0 0 0 0 0 0 0 0 0 0 0 0 0 0 0 0 0 0 0 0 0 0 0 0 0 0 0 0 0 0 0 0 0 0 0 0 0 0 0 0 0 0 0 0
0 0 0 0 0 0 0 0 0 0 0 0 0 0 0 0 0 0 0 0 0 0 0 0 0 0 0 0 0 0 0 0 0 0 0 0 0 0 0 0 0 0 0 0
0 0 0 0 0 0 0 0 0 0 0 0 0 0 0 0 0 0 0 0 0 0 0 0 0 0 0 0 0 0 0 0 0 0 0 0 0 0 0 0 0 0 0 0
0 0 0 0 0 0 0 0 0 0 0 0 0 0 0 0 0 0 0 0 0 0 0 0 0 0 0 0 0 0 0 0 0 0 0 0 0 0 0 0 0 0 0 0
0 0 0 0 0 0 0 0 0 0 0 0 0 0 0 0 0 0 0 0 0 0 0 0 0 0 0 0 0 0 0 0 0 0 0 0 0 0 0 0 0 0 0 0
0 0 0 0 0 0 0 0 0 0 0 0 0 0 0 0 0 0 0 0 0 0 0 0 0 0 0 0 0 0 0 0 0 0 0 0 0 0 0 0 0 0 0 0
0 0 0 0 0 0 0 0 0 0 0 0 0 0 0 0 0 0 0 0 0 0 0 0 0 0 0 0 0 0 0 0 0 0 0 0 0 0 0 0 0 0 0 0
Wind_Speed
3 2 3 4 6 6 5 6 7 5 2 4 7 8 6 5 4 4 4 4 4 4 4 4 4 3 3 2 2 3 2 2 2 2 2 1 1 0 0 0 1 0 0 0
2 4 4 3 4 6 7 8 7 4 1 3 6 9 7 6 6 5 5 5 4 3 3 4 4 3 3 3 2 2 3 2 2 2 1 1 1 1 0 0 0 0 0 0
5 1 2 3 4 5 7 6 6 5 4 5 4 7 6 5 5 4 5 4 4 4 4 4 4 3 3 3 3 2 3 3 2 2 2 1 1 1 0 0 0 0 0 1
3 2 2 3 4 4 6 3 5 5 4 4 4 6 5 5 5 5 5 4 3 2 3 3 4 3 3 3 2 2 2 2 3 3 2 3 2 2 2 1 1 1 1 1
2 0 2 3 3 4 3 3 5 5 5 5 5 5 6 3 4 5 4 3 2 2 2 2 3 3 3 2 2 2 1 2 2 2 3 3 2 1 1 1 1 1 1 1
2 1 1 2 2 2 3 3 4 3 2 6 8 7 6 3 4 4 4 3 2 2 1 1 2 2 2 2 2 2 2 1 1 2 2 3 3 2 2 1 1 1 1 1
3 3 1 1 1 1 1 0 1 2 3 7 3 5 6 1 1 3 4 3 3 2 2 2 1 1 2 2 2 2 2 2 2 2 2 2 2 2 3 2 2 1 1 1
3 3 3 1 1 2 3 3 3 4 4 2 1 5 3 2 3 3 3 3 3 2 2 2 1 1 1 1 1 2 2 2 2 2 3 2 2 1 1 1 1 2 2 2
3 2 1 1 1 1 2 3 2 2 3 4 5 3 1 2 3 3 3 3 2 2 2 2 1 1 1 1 1 2 2 2 2 2 2 2 2 2 2 1 1 2 2 2
2 3 1 1 0 2 2 1 1 2 3 5 5 4 2 1 0 2 3 2 2 2 2 2 2 1 1 0 0 1 1 2 2 2 2 2 2 2 2 2 2 2 2 2
2 2 2 1 3 4 3 2 3 3 3 3 4 3 2 1 2 1 1 2 2 2 2 2 2 2 1 1 0 0 1 1 1 2 2 2 2 2 2 2 2 2 2 2
1 1 3 3 1 2 1 3 3 3 4 3 3 5 2 3 2 2 1 2 2 2 2 2 1 2 1 1 1 1 0 1 1 1 1 1 1 1 2 2 2 2 2 2
0 1 2 2 0 1 1 1 1 1 1 3 5 6 1 3 3 2 1 2 1 2 2 2 2 2 2 2 2 2 1 1 1 0 0 1 1 1 2 2 2 2 2 3
1 2 5 5 3 1 3 3 3 3 4 5 7 7 5 4 3 3 2 2 2 1 2 2 2 2 2 2 2 2 2 2 1 1 1 1 1 1 2 2 2 2 2 3
0 4 5 6 5 2 3 4 4 7 7 7 7 7 8 5 4 3 3 2 2 2 2 2 2 2 2 2 2 2 2 2 2 1 1 2 1 1 1 1 2 2 2 2
1 4 4 6 4 4 6 6 7 8 8 8 8 11 8 6 3 3 3 2 2 3 3 3 3 2 2 2 2 2 2 2 2 1 2 2 2 1 1 2 2 2 2 2
2 2 3 5 2 3 7 7 8 6 5 5 8 9 6 5 5 4 3 2 3 3 3 3 3 3 3 2 2 2 2 2 2 1 2 2 2 2 2 2 2 2 2 2
3 3 3 3 2 6 5 0 3 5 4 4 5 5 4 4 4 3 3 2 3 4 4 3 3 3 2 1 1 1 2 2 2 2 2 2 2 2 2 2 2 2 2 2
2 3 3 2 4 7 3 1 1 3 4 3 5 6 5 5 4 3 2 3 3 3 3 2 2 2 1 1 1 1 2 2 2 2 2 3 2 2 2 3 3 3 3 3
2 0 2 3 4 5 3 2 2 1 4 3 2 4 4 4 3 4 4 4 4 3 3 2 2 1 1 1 1 1 1 2 2 2 3 3 3 3 3 3 3 3 3 3
0 2 4 5 5 5 2 1 2 2 5 4 2 3 3 3 4 5 5 4 3 3 3 2 1 1 1 1 1 1 1 2 2 3 3 3 3 3 3 3 3 3 3 3
4 3 3 3 4 6 1 2 2 4 3 4 4 3 4 5 5 5 5 5 4 4 3 2 1 1 1 1 0 1 2 3 3 3 3 3 3 3 3 2 3 2 3 3
4 5 4 5 6 2 3 3 2 1 3 4 4 4 4 5 5 5 5 4 4 4 3 2 1 1 2 1 0 1 3 2 2 3 3 3 3 3 3 3 3 3 2 2
2 1 2 3 5 3 2 2 2 3 3 4 4 4 4 5 6 5 5 4 4 3 3 2 1 1 2 2 2 2 2 3 2 3 3 3 3 3 3 3 3 2 2 3
3 1 2 5 5 5 3 2 3 4 4 4 4 4 4 5 5 5 4 4 3 3 3 2 1 2 3 2 2 2 2 2 2 3 3 3 3 3 3 3 3 3 3 4
2 3 4 5 3 4 5 2 3 4 5 5 4 5 4 4 5 5 4 4 3 3 2 2 2 2 2 2 2 2 2 2 2 3 3 2 3 3 3 3 4 5 6 8
Wind_Direction
185 210 217 223 229 252 277 267 266 266 201 230 237 247 241 221 212 210 204 197 195 196 170 152 152 148 152 149 159 165 159 160 141 150 152 154 178 306 357 31 43 49 212 257
211 229 243 260 268 259 266 271 274 280 205 246 256 259 249 221 210 205 205 203 202 181 159 155 155 158 170 170 176 177 168 170 162 168 164 167 165 181 194 15 18 315 197 271
230 239 253 249 260 258 255 258 275 289 306 252 268 272 225 210 198 196 203 201 191 183 174 166 163 169 172 183 189 193 178 173 169 158 140 130 113 109 126 215 240 289 250 227
254 261 272 248 253 257 252 284 292 287 289 263 216 275 241 197 202 204 207 200 184 172 157 164 168 173 180 187 178 183 174 171 170 165 162 164 173 185 206 204 200 233 234 242
269 343 264 250 261 270 272 306 279 263 257 274 237 243 267 185 218 214 195 169 161 150 152 164 172 180 178 161 158 170 156 158 163 166 181 183 195 196 177 170 171 194 215 220
265 316 331 302 304 287 288 282 265 244 237 254 225 212 266 211 210 182 157 138 136 117 116 135 155 155 150 137 141 156 160 173 165 174 200 200 198 200 185 187 191 208 223 215
230 216 204 323 298 292 293 344 316 262 224 241 190 203 246 172 100 124 143 134 123 121 121 130 128 139 149 150 158 167 171 190 185 186 215 221 205 194 196 197 199 213 237 244
264 249 178 185 219 231 229 212 197 232 255 280 223 229 245 101 78 71 82 89 87 100 113 116 130 138 145 166 177 189 195 204 195 208 223 222 218 212 216 211 214 223 235 239
298 278 67 68 8 285 229 226 238 255 274 264 242 229 270 85 74 63 56 58 75 79 83 84 84 100 117 163 197 204 207 215 205 209 215 222 223 222 226 235 227 231 240 248
311 281 225 113 278 264 290 291 182 208 252 261 256 231 238 183 120 57 47 28 24 40 45 54 55 48 52 51 238 227 213 217 215 209 212 229 236 237 230 230 235 243 249 253
319 250 250 185 199 203 187 230 223 228 235 241 268 268 360 145 145 132 47 18 15 20 21 25 20 24 34 27 94 197 225 224 219 216 222 224 235 245 242 244 247 249 260 256
318 270 261 227 133 7 219 219 200 205 243 235 254 269 352 54 70 60 19 357 360 14 6 360 3 11 14 5 12 354 287 246 243 231 215 224 234 243 250 255 263 262 264 264
279 206 287 274 301 335 279 267 235 218 260 239 238 258 330 38 26 12 323 306 331 349 351 348 355 357 352 358 356 346 344 336 330 319 237 241 242 253 260 262 265 262 257 263
329 227 219 241 268 200 237 241 211 191 223 243 236 256 286 320 322 319 314 307 316 320 326 334 336 332 343 356 354 345 344 341 334 337 299 274 262 263 274 274 264 267 269 268
241 252 249 260 269 249 248 247 214 212 226 236 257 262 277 289 294 301 311 314 322 321 319 319 320 316 327 339 342 342 339 341 342 342 314 293 303 313 301 296 289 288 283 281
228 255 274 267 246 251 273 263 242 238 241 248 270 278 283 295 315 315 306 308 311 309 309 316 318 316 313 312 317 325 327 334 351 343 311 314 327 328 319 306 303 302 304 303
229 233 263 269 265 302 274 244 222 224 219 216 244 262 296 319 323 313 305 306 304 308 313 312 303 298 294 287 285 293 317 340 349 339 329 327 326 325 318 311 315 308 310 313
212 235 244 276 320 251 242 265 197 212 235 236 261 286 310 308 309 314 317 318 319 314 305 296 294 299 300 304 323 355 356 348 344 340 330 326 322 313 311 305 301 300 305 304
217 208 236 246 252 263 270 293 219 216 263 256 261 283 308 323 322 313 331 334 306 303 302 292 286 291 317 343 3 13 353 350 341 333 330 327 319 306 305 302 304 307 309 306
355 96 227 245 252 253 266 306 324 120 276 302 286 293 317 344 312 295 346 342 332 334 328 322 322 341 344 342 24 19 338 332 319 320 321 320 316 305 299 299 303 304 301 294
189 228 227 239 249 261 278 306 55 130 270 326 332 306 306 272 264 295 326 333 336 333 327 325 331 337 317 333 35 330 314 299 307 317 317 315 310 303 296 295 297 302 301 302
185 195 214 221 237 259 155 103 177 244 312 332 328 318 302 289 300 313 320 325 333 333 331 332 340 327 329 332 317 301 298 306 318 315 311 310 309 305 307 303 300 299 299 300
203 200 201 205 223 248 167 189 224 319 305 311 314 317 313 304 301 309 316 321 326 324 325 340 351 332 331 330 314 284 297 311 312 312 310 310 312 310 308 303 300 300 294 289
238 225 240 262 268 280 263 265 303 308 292 303 310 312 310 297 300 304 309 314 318 320 327 338 347 327 316 327 337 301 301 311 310 307 311 314 314 313 312 303 293 293 291 288
253 191 249 259 282 309 290 293 312 318 312 307 307 302 293 290 293 294 300 304 306 315 321 325 313 299 300 317 323 312 304 305 308 305 307 310 308 306 304 300 290 286 272 274
225 215 228 253 266 261 273 292 316 309 305 303 302 304 301 290 290 298 300 304 307 311 315 313 305 301 301 310 308 307 302 293 292 302 305 304 305 303 302 303 307 301 294 295